Location: Stockholm
(59.3330°N, 18.0500°E)
Time: 05:03:32
(UTC+02:00)

NOAA 18 - Pass Details

Date: 04 April 2023
Orbit: 838 x 860 km, 98.9° (Epoch: 31 May)

Event Time Altitude Azimuth Distance (km) Brightness Sun altitude
Exits shadow 22:29:48 28° 176° (S) 1,557 6.1 -19.1°
Maximum altitude 22:32:48 71° 254° (WSW) 914 5.4 -19.3°
Drops below altitude 10° 22:38:23 10° 339° (NNW) 2,511 8.8 -19.7°
Sets 22:40:47 0° 342° (NNW) 3,450 9.7 -19.9°
